Satura, Russia
Current Conditions -  °F | °C
As of 7:00 PM on Saturday 25 Oct 2014 (Local Time) from UUDD Reporting Station
Clear Clear  
Wind Chill: 21°   Ceiling: Unl
Heat Index: 27°   Visibility: 6mi
Dew Point: 12°   Wind: 4mph
Humidity: 55%   Direction: 230°SW
Pressure: 30.62"   Gusts: NA
Location:  55.57°N, 39.54°E
Report Text: UUDD 251600Z 23002MPS 190V340 CAVOK M03/M11 Q1037 3201009582010095 NOSIG
Loading
Personal Weather Stations






























Interactive Weather Map
Tropical Storm Tracking
New forecast layout! Learn more

10-Day Weather Forecast

Advertisements
Track Severe Weather on mobile